Miscellaneous Local Product
Issued by NWS North Platte, NE

Home | Current Version | Previous Version | Graphics & Text | Print | Product List | Glossary On
Versions: 1 2 3 4 5 6 7 8 9 10 11 12 13 14 15 16 17 18 19 20 21 22 23 24 25 26 27 28 29 30 31 32 33 34 35 36 37 38 39 40 41 42 43 44 45 46 47 48 49 50
890
AXUS43 KLBF 201110
MISLBF


WESTERN AND NORTH CENTRAL NEBRASKA HOURLY WEATHER ROUNDUP
NATIONAL WEATHER SERVICE NORTH PLATTE NE
600 AM CDT FRI APR 20 2018

NOTE: "FAIR" INDICATES FEW OR NO CLOUDS BELOW 12,000 FEET WITH NO
SIGNIFICANT WEATHER AND/OR OBSTRUCTIONS TO VISIBILITY.

NOTE: STATIONS NOT REPORTING VARIABLES SUCH AS SKY/WEATHER OR
PRESSURE ARE PROVIDED BY RAWS AND APRS NETWORKS AND ARE NOT UNDER
NATIONAL WEATHER SERVICE QUALITY CONTROL.

...OBSERVATIONS IN AND NEAR THE EASTERN PANHANDLE OF NEBRASKA...

CITY           SKY/WX    TMP DP  RH WIND       PRES   REMARKS
PINE RIDGE     CLOUDY    41  29  62 E9        30.12F
GORDON         FAIR      39  29  66 SE12      30.14S WCI  32
CHADRON        CLOUDY    44  28  53 SE22G32   30.07F
ALLIANCE       CLOUDY    40  28  62 SE30G38   30.07F WCI  28
SIDNEY         MOCLDY    37  27  67 SE29G37   30.06F WCI  25
CRESCENT LAKE    N/A     40  27  60 SE14G29     N/A  WCI  32
$$

...OBSERVATIONS IN NORTHERN NEBRASKA AND FAR SOUTHERN SOUTH DAKOTA...

CITY           SKY/WX    TMP DP  RH WIND       PRES   REMARKS
WINNER         FAIR      34  29  82 E14       30.27F WCI  25
VALENTINE      CLOUDY    33  28  81 E8        30.23F WCI  26
AINSWORTH      CLOUDY    37  29  72 S8        30.25S WCI  31
O`NEILL        CLOUDY    37  32  80 SE8       30.32S WCI  31
THEDFORD       CLOUDY    40  29  65 SE10      30.23F WCI  34
BROKEN BOW     PTCLDY    34  26  72 SE6       30.27S WCI  29
ORD            MOCLDY    32  28  85 E5        30.30F WCI  27
ALBION         CLOUDY    35  30  82 SE7       30.34F WCI  29
VALENTINE NWR    N/A     35  26  70 SE8         N/A  WCI  28
HALSEY           N/A     36  28  72 SE5         N/A  WCI  32
BUTTE            N/A     32  29  90 E12         N/A  WCI  23
CHAMBERS         N/A     35  28  76 SE7         N/A  WCI  29
EWING            N/A     34  30  85 CALM        N/A
$$

...OBSERVATIONS IN SOUTHWEST NEBRASKA AND FAR NORTHEAST COLORADO...

CITY           SKY/WX    TMP DP  RH WIND       PRES   REMARKS
WRAY           FAIR      41  28  60 SE21G26   30.10S
HOLYOKE        FAIR      43  30  61 SE20G28   30.12R
IMPERIAL       CLOUDY    41  28  60 E17       30.15F
OGALLALA       CLOUDY    43  28  55 SE16G25   30.15F
NORTH PLATTE   CLOUDY    44  28  53 S10       30.21F
MCCOOK         CLOUDY    40  27  59 E6        30.22S
LEXINGTON      MOCLDY    40  29  64 SE8       30.27S
STAPLETON        N/A     39  28  66 CALM        N/A
GOTHENBURG       N/A     36  27  69 E5          N/A  WCI  32
CALLAWAY         N/A     40  30  66 S14         N/A  WCI  32
$$

...OBSERVATIONS IN CENTRAL LINCOLN COUNTY AREA...

CITY           SKY/WX    TMP DP  RH WIND       PRES   REMARKS
N.P. AIRPORT   CLOUDY    44  28  53 S10       30.21F
N.P. DOWNTOWN    N/A     43  29  57 SE3         N/A
N.P. HILLCREST   N/A     42  30  62 SE13        N/A
$$

...OBSERVATIONS ACROSS THE ROCKIES AND WESTERN HIGH PLAINS...

CITY           SKY/WX    TMP DP  RH WIND       PRES   REMARKS
RAPID CITY     CLOUDY    36  28  73 SE12      30.14F WCI  28
SCOTTSBLUFF    CLOUDY    40  28  62 SE22G29   30.06F WCI  30
CHEYENNE       CLOUDY    32  25  75 SE7       29.96F WCI  26
DENVER         PTCLDY    42  22  44 S14       29.89F
BERTHOUD PASS  FAIR      25  14  63 S32G56    30.01F WCI   7
MONARCH PASS   MIX PCPN  28  25  86 S15G36    30.08F WCI  17
ASPEN          RAIN      38  35  89 CALM      29.85F FOG
STEAMBOAT      CLOUDY    40  29  62 CALM      29.84S
LARAMIE        CLOUDY    33  22  63 S16       29.90F WCI  23
CASPER         CLOUDY    35  28  75 N12       29.95R WCI  27
$$

...OBSERVATIONS ACROSS THE NORTHERN PLAINS...

CITY           SKY/WX    TMP DP  RH WIND       PRES   REMARKS
BISMARCK       CLEAR     29  22  75 E6        30.32F WCI  23
FARGO          FAIR      32  29  88 S3        30.41S
PIERRE         CLOUDY    34  31  88 E12       30.28S WCI  25
SIOUX FALLS    PTCLDY    29  20  69 E6        30.41F WCI  23
$$

...OBSERVATIONS ACROSS THE CENTRAL AND SOUTHERN PLAINS...

CITY           SKY/WX    TMP DP  RH WIND       PRES   REMARKS
OMAHA          CLOUDY    35  25  66 SE7       30.42S WCI  29
GRAND ISLAND   CLOUDY    38  28  67 SE8       30.33S WCI  32
KANSAS CITY    CLOUDY    40  29  64 E8        30.41S WCI  34
WICHITA        CLOUDY    44  32  62 E9        30.34R
DODGE CITY     CLOUDY    42  27  55 SE17G29   30.23F
OKLAHOMA CITY  CLOUDY    42  33  70 E10       30.29S
DALLAS         MOCLDY    52  39  61 E16       30.24R
AMARILLO       LGT RAIN  46  29  51 SE16      30.11F
$$




USA.gov is the U.S. government's official web portal to all federal, state and local government web resources and services.